Time,TemperatureF,DewpointF,PressureIn,WindDirection,WindDirectionDegrees,WindSpeedMPH,WindSpeedGustMPH,Humidity,HourlyPrecipIn,Conditions,Clouds,dailyrainin,SoftwareType,DateUTC
2013-04-16 00:02:00,62.2,16.9,29.63,East,90,0.0,1.0,17,0.00,,,0.00,WeatherTracker,2013-04-16 06:02:00,
2013-04-16 00:07:00,62.4,17.0,29.63,East,90,0.0,2.0,17,0.00,,,0.00,WeatherTracker,2013-04-16 06:07:00,
2013-04-16 00:12:00,62.5,17.1,29.63,ENE,57,3.0,3.0,17,0.00,,,0.00,WeatherTracker,2013-04-16 06:12:00,
2013-04-16 00:17:00,63.0,17.5,29.63,ENE,72,1.0,3.0,17,0.00,,,0.00,WeatherTracker,2013-04-16 06:17:00,
2013-04-16 00:22:00,63.1,17.6,29.63,East,79,1.0,5.0,17,0.00,,,0.00,WeatherTracker,2013-04-16 06:22:00,
2013-04-16 00:27:00,63.0,17.5,29.63,East,89,1.0,5.0,17,0.00,,,0.00,WeatherTracker,2013-04-16 06:27:00,
2013-04-16 00:32:00,62.5,17.1,29.63,East,99,0.0,3.0,17,0.00,,,0.00,WeatherTracker,2013-04-16 06:32:00,
2013-04-16 00:37:00,62.3,16.9,29.63,East,100,0.0,5.0,17,0.00,,,0.00,WeatherTracker,2013-04-16 06:37:00,
2013-04-16 00:42:00,62.2,18.2,29.63,East,99,2.0,5.0,18,0.00,,,0.00,WeatherTracker,2013-04-16 06:42:00,
2013-04-16 00:47:00,62.2,18.2,29.63,ENE,72,4.0,8.0,18,0.00,,,0.00,WeatherTracker,2013-04-16 06:47:00,
2013-04-16 00:52:00,62.0,18.0,29.63,East,94,2.0,8.0,18,0.00,,,0.00,WeatherTracker,2013-04-16 06:52:00,
2013-04-16 00:57:00,61.8,17.9,29.63,East,101,1.0,8.0,18,0.00,,,0.00,WeatherTracker,2013-04-16 06:57:00,
2013-04-16 01:02:00,61.5,17.6,29.63,East,93,1.0,5.0,18,0.00,,,0.00,WeatherTracker,2013-04-16 07:02:00,
2013-04-16 01:07:00,61.4,18.8,29.63,East,80,1.0,3.0,19,0.00,,,0.00,WeatherTracker,2013-04-16 07:07:00,
2013-04-16 01:12:00,61.2,18.6,29.63,East,82,0.0,5.0,19,0.00,,,0.00,WeatherTracker,2013-04-16 07:12:00,
2013-04-16 01:17:00,60.9,18.4,29.63,East,84,0.0,5.0,19,0.00,,,0.00,WeatherTracker,2013-04-16 07:17:00,
2013-04-16 01:22:00,60.8,18.3,29.63,East,85,1.0,3.0,19,0.00,,,0.00,WeatherTracker,2013-04-16 07:22:00,
2013-04-16 01:27:00,60.8,19.5,29.64,East,85,1.0,3.0,20,0.00,,,0.00,WeatherTracker,2013-04-16 07:27:00,
2013-04-16 01:33:00,61.0,19.7,29.64,ENE,76,0.0,7.0,20,0.00,,,0.00,WeatherTracker,2013-04-16 07:33:00,
2013-04-16 01:38:00,61.9,20.4,29.64,SE,143,7.0,8.0,20,0.00,,,0.00,WeatherTracker,2013-04-16 07:38:00,
2013-04-16 01:43:00,62.8,21.1,29.64,ESE,111,5.0,13.0,20,0.00,,,0.00,WeatherTracker,2013-04-16 07:43:00,
2013-04-16 01:48:00,63.1,20.2,29.64,ESE,116,2.0,13.0,19,0.00,,,0.00,WeatherTracker,2013-04-16 07:48:00,
2013-04-16 01:53:00,62.9,21.2,29.64,ENE,76,3.0,13.0,20,0.00,,,0.00,WeatherTracker,2013-04-16 07:53:00,
2013-04-16 01:58:00,62.3,20.7,29.64,ESE,113,2.0,11.0,20,0.00,,,0.00,WeatherTracker,2013-04-16 07:58:00,
2013-04-16 02:03:00,61.8,21.5,29.64,ENE,66,3.0,8.0,21,0.00,,,0.00,WeatherTracker,2013-04-16 08:03:00,
2013-04-16 02:08:00,61.9,21.5,29.64,East,95,2.0,8.0,21,0.00,,,0.00,WeatherTracker,2013-04-16 08:08:00,
2013-04-16 02:13:00,61.4,21.1,29.64,ESE,106,1.0,7.0,21,0.00,,,0.00,WeatherTracker,2013-04-16 08:13:00,
2013-04-16 02:18:00,60.9,20.7,29.64,ENE,63,1.0,3.0,21,0.00,,,0.00,WeatherTracker,2013-04-16 08:18:00,
2013-04-16 02:23:00,60.6,21.6,29.64,ENE,63,0.0,2.0,22,0.00,,,0.00,WeatherTracker,2013-04-16 08:23:00,
2013-04-16 02:28:00,60.3,21.3,29.64,East,90,2.0,2.0,22,0.00,,,0.00,WeatherTracker,2013-04-16 08:28:00,
2013-04-16 02:33:00,60.3,21.3,29.64,East,98,1.0,3.0,22,0.00,,,0.00,WeatherTracker,2013-04-16 08:33:00,
2013-04-16 02:38:00,60.2,21.2,29.64,East,98,0.0,3.0,22,0.00,,,0.00,WeatherTracker,2013-04-16 08:38:00,
2013-04-16 02:43:00,60.1,21.1,29.64,ENE,69,0.0,2.0,22,0.00,,,0.00,WeatherTracker,2013-04-16 08:43:00,
2013-04-16 02:48:00,60.0,21.1,29.63,ENE,78,2.0,2.0,22,0.00,,,0.00,WeatherTracker,2013-04-16 08:48:00,
2013-04-16 02:53:00,60.3,21.3,29.63,ESE,102,2.0,4.0,22,0.00,,,0.00,WeatherTracker,2013-04-16 08:53:00,
2013-04-16 02:59:00,60.7,21.6,29.64,East,93,3.0,6.0,22,0.00,,,0.00,WeatherTracker,2013-04-16 08:59:00,
2013-04-16 03:04:00,60.9,21.8,29.64,East,99,5.0,8.0,22,0.00,,,0.00,WeatherTracker,2013-04-16 09:04:00,
2013-04-16 03:09:00,60.6,21.6,29.64,SSE,148,0.0,8.0,22,0.00,,,0.00,WeatherTracker,2013-04-16 09:09:00,
2013-04-16 03:14:00,60.3,21.3,29.63,ENE,78,0.0,6.0,22,0.00,,,0.00,WeatherTracker,2013-04-16 09:14:00,
2013-04-16 03:19:00,60.1,21.1,29.63,ENE,76,0.0,5.0,22,0.00,,,0.00,WeatherTracker,2013-04-16 09:19:00,